Regional Weather Roundup
Issued by NWS Newport/Morehead, NC

Home | Current Version | Previous Version | Text Only | Print | Product List | Glossary On
Versions: 1 2 3 4 5 6 7 8 9 10 11 12 13 14 15 16 17 18 19 20 21 22 23 24 25 26 27 28 29 30 31 32 33 34 35 36 37 38 39 40 41 42 43 44 45 46 47 48 49 50
000
ASUS42 KMHX 251224
RWRMHX
WEATHER ROUNDUP FOR EASTERN NORTH CAROLINA
NATIONAL WEATHER SERVICE NEWPORT/MOREHEAD CITY NC
800 AM EDT MON MAY 25 2015

NOTE: "FAIR" INDICATES FEW OR NO CLOUDS BELOW 12,000 FEET
WITH NO SIGNIFICANT WEATHER AND/OR OBSTRUCTIONS TO VISIBILITY

NCZ015>017-031-032-045>047-102-103-251300-
NORTH COAST

CITY           SKY/WX    TMP DP  RH WIND       PRES   REMARKS
EDENTON        SUNNY     71  62  71 SW6       30.36S
ELIZABETH CITY SUNNY     69  63  81 SW3       30.36R
KITTY HAWK     SUNNY     70  62  76 CALM      30.36R
MANTEO         SUNNY     71  62  74 CALM      30.37S

$$

NCZ045>047-081-094-103-104-251300-
CENTRAL COAST

CITY           SKY/WX    TMP DP  RH WIND       PRES   REMARKS
FRISCO         SUNNY     73  57  57 S6        30.37R
SWANQUARTER      N/A     75 N/A N/A SW6       30.33S

$$

NCZ095-097-098-100-101-251300-
SOUTHERN COAST

CITY           SKY/WX    TMP DP  RH WIND       PRES   REMARKS
BEAUFORT       SUNNY     72  59  63 SE6       30.36R
CEDAR ISLAND     N/A     75 N/A N/A SE7       30.41R
JACKSONVILLE   MOSUNNY   69  64  84 CALM      30.35R
PINEY ISLAND   SUNNY    N/A N/A N/A S3        30.36R
WILMINGTON     SUNNY     68  62  81 CALM      30.34S


$$

NCZ011>013-027>030-043-044-078>080-089-090>093-098-251300-
COASTAL PLAIN

CITY           SKY/WX    TMP DP  RH WIND       PRES   REMARKS
AHOSKIE        SUNNY     64  60  85 CALM      30.37R
CLINTON        SUNNY     69  63  81 CALM      30.36S
ELIZABETHTOWN  MOSUNNY   65  61  86 CALM      30.35R
GOLDSBORO      SUNNY     68  61  80 CALM      30.34R
GREENVILLE     SUNNY     68  61  77 CALM      30.37R
HAVELOCK       SUNNY     68  61  78 CALM      30.37R
KENANSVILLE    MOSUNNY   67  61  80 CALM      30.37S
KINSTON        SUNNY     66  61  82 CALM      30.37R
NEW BERN       SUNNY     70  60  70 CALM      30.37R
RICHLANDS      MOSUNNY   70  59  68 CALM      30.37R
ROCKY MOUNT    SUNNY     67  62  84 CALM      30.36R
WASHINGTON     SUNNY     70  61  74 S3        30.37R
WHITEVILLE     SUNNY     66  60  81 CALM      30.34S

$$

AMZ130-135-150-152-154-156-158-170-250-252-270-ANZ085-086-088-633-658-670-251300-
MARINE OBSERVATIONS

STATION/POSITION TIME  TEMP    WIND        PRES    WAVE   SWELL
                       AIR SEA DIR/SP/G            HT/PER HT/PER
                 (UTC) (F)     (DEG/KT/KT) (MB)    (FT/S) (FT/S)
CHESAPEAKE LIGHT 1200   66     200/ 10/ 11 1028.6
64 E VA BEACH    1150   64 61  180/  4/  4 1028.2    1/ 8   2/ 8
DUCK             1200   66 62  160/  6/  7 1027.2
2 E DUCK         1111      63                N/A     1/13
OREGON INLET     1200   71 72  120/  5/  6 1028.3
13E OREGON INLT  1200      65                N/A     2/ 8
HATTERAS CG      1200   74 74  160/  5/  7 1027.8
DIAMOND BUOY     1150   73 77  150/  6/ 10 1028.4    2/ 8   2/ 8
CAPE LOOKOUT     1200   72     130/  7/  8 1027.8
BEAUFORT LAB     1200   72 74  130/  6/  8 1027.2
27 SE WRIGHTSVLE 1200   71 76  160/  8/ 10   N/A
5 SE WRIGHTSVLE  1108   74 76  140/  8/ 12 1027.2
225 S CAPE HAT   1150   73 74   80/ 14/ 17 1027.1    4/ 6   2/ 9
41 SE CHARLESTON 1150   75 75   90/ 10/ 12 1025.6    5/ 7   3/ 7

$$


USA.gov is the U.S. government's official web portal to all federal, state and local government web resources and services.